EW0413 Weather Reports


time (UTC)temp
F
wind
direction
speed
knots
gust
knots
rain 1hr
in
rain 24hr
in
rain mn
in
humidity
%
barometer
mb
20260503213028 62 155 6.1 16.5 0.00 0.03 0.03 58 1006.5
20260503211506 63 158 5.2 13.0 0.00 0.03 0.03 58 1006.7
20260503210005 63 188 7.0 13.0 0.00 0.03 0.03 56 1007.0
20260503204603 63 141 7.0 15.6 0.00 0.03 0.03 55 1007.3
20260503203043 63 172 7.0 14.8 0.00 0.03 0.03 56 1007.6
20260503201543 63 210 5.2 15.6 0.00 0.03 0.03 55 1007.7
20260503200022 63 143 8.7 17.4 0.01 0.03 0.03 54 1007.8
20260503194521 64 171 6.1 14.8 0.01 0.03 0.03 55 1007.9
20260503193101 63 175 7.8 15.6 0.01 0.03 0.03 57 1008.4
20260503191556 63 177 7.0 13.9 0.01 0.03 0.03 58 1008.8
20260503190042 62 224 5.2 14.8 0.00 0.02 0.02 60 1008.8
20260503184537 61 200 5.2 13.0 0.00 0.02 0.02 62 1009.2
20260503183013 59 150 4.3 9.6 0.00 0.02 0.02 67 1009.8
20260503181507 57 128 1.7 6.1 0.00 0.02 0.02 69 1010.4
20260503180047 54 170 2.6 7.8 0.00 0.02 0.02 74 1011.1
20260503174601 52 188 2.6 9.6 0.01 0.02 0.02 77 1011.5
20260503173025 52 186 1.7 3.5 0.01 0.02 0.02 82 1012.2
20260503171523 52 129 0.9 4.3 0.02 0.02 0.02 81 1011.9
20260503081550 37 164 0.0 0.0 0.00 0.00 0.00 86 1014.0
20260503071511 39 164 0.0 0.0 0.00 0.00 0.00 82 1014.2
20260503054514 39 164 0.0 0.0 0.00 0.00 0.00 83 1015.0
20260503053047 40 164 0.0 0.9 0.00 0.00 0.00 82 1015.0
20260503051546 40 163 0.0 0.9 0.00 0.00 0.00 83 1015.2
20260503050043 40 162 0.0 0.9 0.00 0.00 0.00 83 1015.2
20260503044547 40 146 0.0 0.0 0.00 0.00 0.00 83 1015.2
20260503043042 40 145 0.0 0.0 0.00 0.00 0.00 83 1015.2
20260503041540 40 145 0.0 0.0 0.00 0.00 0.00 82 1015.2
20260503040039 41 145 0.0 0.0 0.00 0.00 0.00 82 1015.3
20260503034552 41 145 0.0 0.9 0.00 0.00 0.00 82 1015.2
20260503033027 41 150 0.0 0.0 0.00 0.00 0.00 82 1015.2
20260503031521 40 148 0.0 0.0 0.00 0.00 0.00 85 1015.4
20260503030002 40 270 0.0 0.0 0.00 0.00 0.00 83 1015.4
20260503024501 40 270 0.0 0.0 0.00 0.00 0.00 83 1015.4
20260503023050 41 270 0.0 0.0 0.00 0.00 0.00 82 1015.4
20260503021549 41 270 0.0 0.0 0.00 0.00 0.00 80 1015.3
20260503020049 42 270 0.0 0.0 0.00 0.00 0.00 79 1015.3
20260503014602 43 270 0.0 0.0 0.00 0.00 0.00 78 1015.2
20260503013047 45 270 0.0 0.0 0.00 0.00 0.00 79 1015.1
20260503011548 46 270 0.0 0.0 0.00 0.00 0.00 78 1015.1
20260503010046 47 269 0.0 0.0 0.00 0.00 0.00 75 1015.1
20260503004545 48 270 0.0 0.0 0.00 0.00 0.00 67 1015.0
20260503003041 49 270 0.0 0.0 0.00 0.00 0.00 63 1015.1
20260503001547 51 270 0.0 0.0 0.00 0.00 0.00 60 1015.1
20260503000008 53 270 0.0 0.0 0.00 0.00 0.00 59 1015.1
20260502234507 52 270 0.0 0.0 0.00 0.00 0.00 57 1015.1
20260502233106 54 270 0.0 1.7 0.00 0.00 0.00 54 1015.3
20260502231555 55 306 0.0 2.6 0.00 0.00 0.00 52 1015.3
20260502230053 56 289 0.9 6.1 0.00 0.00 0.00 51 1015.4
20260502224550 55 304 4.3 8.7 0.00 0.00 0.00 53 1015.4
20260502223050 54 203 0.0 5.2 0.00 0.00 0.00 50 1015.4
20260502221549 54 304 3.5 7.8 0.00 0.00 0.00 50 1015.4
20260502220049 55 290 5.2 11.3 0.00 0.00 0.00 47 1015.4
20260502214558 55 304 3.5 9.6 0.00 0.00 0.00 47 1015.4